Cloud_Cover
94 99 100 100 100 100 100 100 100 99 100 99 100 100 7 5 0 0 0 4 61 98 100 100 8 18 100 100 100 100 100 100 100 100 100 100 100 25 6 50 45 3 13 86
100 100 100 100 100 100 100 100 100 100 100 100 100 58 5 62 5 30 0 7 80 97 100 100 90 5 100 100 100 100 100 100 100 100 100 100 100 99 39 5 5 24 40 15
91 99 100 100 100 100 100 100 100 100 100 17 66 19 5 6 0 5 0 0 98 100 100 87 100 72 100 100 100 100 100 100 97 60 100 100 100 96 93 61 95 98 100 4
100 100 100 100 100 100 100 100 92 47 100 89 22 90 34 10 31 10 42 6 5 99 100 98 65 100 100 100 100 100 100 100 100 27 100 96 100 100 36 100 100 100 100 19
93 100 100 100 100 100 100 100 86 35 52 92 100 49 8 75 5 5 0 85 0 93 100 85 100 100 11 100 100 100 100 100 97 92 100 100 100 100 43 99 100 100 99 62
78 95 100 100 100 100 100 100 100 100 17 100 100 34 5 7 90 6 2 1 5 71 92 100 100 16 39 100 100 100 100 100 100 92 100 100 100 100 93 100 100 100 80 14
100 94 100 100 100 100 100 93 87 100 88 68 24 20 82 38 36 13 14 11 24 1 100 96 100 100 99 100 100 100 100 100 100 100 100 45 98 100 17 8 97 31 29 88
85 100 65 100 100 100 100 100 100 100 100 79 96 100 76 30 99 93 60 1 94 20 25 100 100 100 23 100 100 100 100 100 100 100 100 91 100 100 98 53 67 22 88 100
91 100 52 96 100 100 100 100 100 100 100 86 91 99 88 80 98 32 2 13 100 94 98 100 100 6 10 100 100 100 100 100 100 100 100 100 100 100 100 100 86 100 100 98
100 100 96 21 100 100 100 100 100 100 99 100 100 98 12 92 100 50 3 89 100 24 100 100 100 88 85 99 100 100 100 100 100 100 100 100 100 100 100 28 65 100 57 60
88 90 98 100 100 100 100 100 100 100 100 86 100 91 100 100 100 71 0 53 39 100 100 84 98 32 15 100 100 100 100 100 100 100 100 90 100 100 96 99 100 26 23 48
37 100 100 100 100 100 100 100 100 100 98 100 100 100 100 100 100 82 0 14 89 95 100 14 16 9 100 100 100 100 100 100 100 100 100 100 100 100 100 100 100 98 99 100
100 100 100 100 100 100 100 100 100 100 100 100 100 100 100 100 100 28 2 73 8 100 99 67 5 2 100 100 100 100 100 100 100 100 100 100 100 100 100 100 100 68 82 71
100 100 100 100 100 90 100 100 100 100 100 100 100 100 100 77 75 5 4 22 61 85 78 92 54 3 87 100 100 100 100 100 100 100 100 100 100 100 100 100 100 100 100 100
100 100 100 100 100 100 100 100 100 100 100 100 100 100 71 100 100 5 5 19 92 100 83 53 7 5 10 100 100 100 74 100 100 99 100 100 100 100 99 100 100 100 100 100
100 100 100 100 100 100 100 100 100 100 100 100 100 47 100 100 60 5 0 5 30 100 80 31 50 7 0 46 100 100 100 100 100 100 100 100 100 100 100 100 100 100 100 100
100 100 100 100 100 100 100 100 100 100 100 100 100 100 100 100 86 4 20 11 90 32 94 76 5 1 0 2 100 100 100 100 100 100 100 100 100 100 100 100 100 100 68 99
100 100 100 100 100 100 100 100 94 100 100 100 100 100 100 100 36 5 16 51 100 100 100 89 0 0 49 6 100 100 100 100 78 20 88 100 100 100 73 100 100 100 52 88
100 100 100 100 100 100 100 100 100 100 100 100 100 100 100 82 8 6 18 100 100 21 12 5 34 5 53 42 100 100 100 96 5 28 10 97 100 100 100 100 100 100 100 100
100 100 100 100 100 100 100 100 100 100 100 100 100 100 68 72 97 86 100 100 77 14 1 64 100 64 50 22 100 94 99 98 30 65 100 100 100 100 100 100 100 100 100 100
100 100 100 100 100 100 100 100 100 100 100 100 86 36 60 89 100 100 100 100 100 84 18 42 94 13 100 100 100 78 82 92 100 100 100 100 100 100 100 100 100 100 100 100
100 100 100 100 100 100 100 100 100 100 100 86 68 21 89 94 100 100 100 100 100 100 74 89 96 100 100 100 100 100 100 100 100 100 100 100 100 100 100 100 100 100 100 100
88 88 92 92 95 100 100 100 100 100 98 63 97 100 99 88 100 100 100 100 100 100 100 100 100 100 100 100 100 100 100 100 100 100 100 100 100 100 100 100 100 100 100 100
79 97 81 100 78 100 100 100 100 100 100 100 100 100 100 100 100 100 100 100 100 100 100 100 100 100 100 100 100 100 100 100 100 100 100 100 100 100 100 100 100 99 97 100
64 76 98 97 100 99 97 99 100 100 100 100 100 100 100 100 100 100 100 100 100 100 100 100 100 100 100 98 100 100 100 100 100 100 100 100 100 100 100 100 100 100 100 100
100 100 100 100 100 92 99 96 100 100 100 100 100 100 100 100 100 100 100 100 100 100 100 100 100 100 100 100 100 100 100 100 100 100 100 100 100 100 100 100 100 100 100 100
100 100 100 100 100 100 100 100 90 100 100 100 100 100 100 100 100 100 100 100 100 100 100 100 100 100 100 100 100 100 100 100 100 100 100 100 100 100 100 100 100 100 100 100